Regional Weather Roundup
Issued by NWS

Home | Current Version | Previous Version | Text Only | Print | Product List | Glossary Off
Versions: 1 2 3 4 5 6 7 8 9 10 11 12 13 14 15 16 17 18 19 20 21 22 23 24 25 26 27 28 29 30 31 32 33 34 35 36 37 38 39 40 41 42 43 44 45 46

000
ASUS45 KCYS 251710
RWRWY

WYOMING REGIONAL WEATHER ROUNDUP
NATIONAL WEATHER SERVICE CHEYENNE WY
1000 AM MST THU DEC 25 2014

NOTE:  "FAIR" INDICATES FEW OR NO CLOUDS BELOW 12,000 FEET
WITH NO SIGNIFICANT WEATHER AND/OR OBSTRUCTIONS TO VISIBILITY.

WYZ001-251800-
YELLOWSTONE NATIONAL PARK

CITY           SKY/WX    TMP DP  RH WIND       PRES   REMARKS
LK YELLOWSTONE   N/A     15  10  80 VRB7      29.61R WCI   5
W YELLOWSTONE  NOT AVBL

$$
WYZ002>013-054>058-071-098>099-251800-
NORTHERN WYOMING

CITY           SKY/WX    TMP DP  RH WIND       PRES   REMARKS
JACKSON        LGT SNOW  23  21  93 N30       29.48  VSB 3/4 WCI   5
CODY           CLOUDY    23  19  86 N17G26    29.73R WCI   9
GREYBULL       CLOUDY    29  20  69 NW18      29.66R WCI  16
WORLAND        SNOW      26  24  92 N15       29.66R VSB 1/4 WCI  14
SHERIDAN       LGT SNOW  27  23  85 N10       29.79R VSB 3/4 WCI  17
BUFFALO        LGT SNOW  24  22  91 N21       29.73R VSB 3/4 WCI   9
GILLETTE       LGT SNOW  25  23  92 N21       29.71R VSB 1   WCI  11
HULETT           N/A    N/A N/A N/A MISG        N/A
NEWCASTLE      PTSUNNY   32  23  69 N6        29.64R WCI  26

$$
WYZ014>020-022>026-101>103-251800-
CENTRAL WYOMING

CITY           SKY/WX    TMP DP  RH WIND       PRES   REMARKS
BIG PINEY      HVY SNOW  26  23  88 E12       29.44R VSB 1/4 WCI  16
PINEDALE       CLOUDY    27  23  86 CALM      29.46R
DUBOIS         NOT AVBL
LANDER         SNOW      24  21  88 NE14      29.61R VSB 1/4 WCI  12
RIVERTON       LGT SNOW  24  20  84 N21G28    29.61R VSB 3/4 WCI   9
CASPER         SNOW      24  21  88 NE20G25   29.63R VSB 1/2 WCI  10
DOUGLAS        LGT SNOW  29  26  89 N9        29.60R VSB 3/4 WCI  20

$$
WYZ021-027>030-104>119-251800-
SOUTHERN WYOMING

CITY           SKY/WX    TMP DP  RH WIND       PRES   REMARKS
EVANSTON       CLOUDY    20  18  92 SW16      29.51R WCI   6
FORT BRIDGER   CLOUDY    24  20  85 W23G32    29.51R WCI   8
ROCK SPRINGS   SNOW      24  22  91 W12       29.51R VSB 1/4 WCI  13
DIXON          LGT SNOW  30  26  84 W9        29.51R WCI  22
RAWLINS        SNOW      27  24  89 N10       29.51R VSB 1/4 WCI  17
SARATOGA       CLOUDY    32  23  69 CALM      29.48S
LARAMIE        LGT SNOW  29  27  92 E9        29.48R VSB 3/4 WCI  20
CHEYENNE       LGT SNOW  31  28  89 NE7       29.51R FOG     WCI  24
TORRINGTON     SNOW      29  27  92 NE10      29.58R VSB 1/4 WCI  20
PINE BLUFFS    FLURRIES  32  30  93 NE14G22   29.53R WCI  22

$$


USA.gov is the U.S. government's official web portal to all federal, state and local government web resources and services.